Terminal Aerodrome Forecast
Issued by NWS Tuscon, AZ

Home | Current Version | Previous Version | Text Only | Print | Product List | Glossary On
Versions: 1 2 3 4 5 6 7 8 9 10 11 12 13
434
FTUS45 KTWC 101947 RRA
TAFDUG
TAF
KDUG 101947Z 1020/1118 01006KT P6SM SKC
     FM110200 VRB04KT P6SM SKC=

USA.gov is the U.S. government's official web portal to all federal, state and local government web resources and services.